Location: �bnet
(46.9957°N, 8.4908°E)
Time: 00:20:42
(UTC+00:00)

SJ 16-02 - Pass Details

Date: 11 May 2021
Orbit: 606 x 616 km, 75.0° (Epoch: 18 June)

Event Time Altitude Azimuth Distance (km) Brightness Sun altitude
Exits shadow 21:19:29 18° 214° (SSW) 1,537 3.1 -19.3°
Maximum altitude 21:22:44 64° 293° (WNW) 686 1.7 -19.5°
Drops below altitude 10° 21:27:09 10° 15° (NNE) 1,989 4.6 -19.9°
Sets 21:29:26 0° 19° (NNE) 2,899 5.4 -20.1°
